TimeEDT,TemperatureF,Dew PointF,Humidity,Sea Level PressureIn,VisibilityMPH,Wind Direction,Wind SpeedMPH,Gust SpeedMPH,PrecipitationIn,Events,Conditions,WindDirDegrees,DateUTC
12:53 AM,75.0,71.1,87,29.74,10.0,South,3.5,-,0.00,,Mostly Cloudy,170,2013-09-22 04:53:00
1:53 AM,75.9,71.1,85,29.73,10.0,SSE,4.6,-,N/A,,Overcast,160,2013-09-22 05:53:00
2:53 AM,75.9,71.1,85,29.70,10.0,SSE,5.8,-,0.00,,Overcast,160,2013-09-22 06:53:00
3:53 AM,77.0,69.1,76,29.68,10.0,South,6.9,-,0.00,Rain,Light Rain,170,2013-09-22 07:53:00
4:47 AM,75.2,71.6,89,29.68,1.8,SSW,6.9,-,0.07,Rain,Heavy Rain,210,2013-09-22 08:47:00
4:51 AM,75.2,71.6,89,29.68,1.0,WSW,13.8,23.0,0.22,Rain,Heavy Rain,250,2013-09-22 08:51:00
4:53 AM,73.9,72.0,93,29.68,1.0,WSW,16.1,23.0,0.30,Rain,Heavy Rain,250,2013-09-22 08:53:00
5:02 AM,73.4,71.6,94,29.68,1.8,SSW,13.8,19.6,0.18,Rain,Heavy Rain,210,2013-09-22 09:02:00
5:06 AM,73.4,71.6,94,29.67,2.5,SSW,12.7,19.6,0.19,Rain,Heavy Rain,200,2013-09-22 09:06:00
5:13 AM,73.4,71.6,94,29.67,4.0,SSW,13.8,18.4,0.22,Rain,Rain,210,2013-09-22 09:13:00
5:53 AM,73.0,70.0,90,29.68,10.0,South,10.4,-,0.26,,Overcast,190,2013-09-22 09:53:00
6:11 AM,73.4,71.6,94,29.67,10.0,South,8.1,-,N/A,,Overcast,170,2013-09-22 10:11:00
6:53 AM,73.0,71.1,93,29.68,10.0,SSW,4.6,-,N/A,,Overcast,210,2013-09-22 10:53:00
7:17 AM,73.4,71.6,94,29.68,10.0,SSW,8.1,-,N/A,,Overcast,210,2013-09-22 11:17:00
7:37 AM,73.4,71.6,94,29.68,10.0,SSW,5.8,-,N/A,,Overcast,210,2013-09-22 11:37:00
7:53 AM,73.9,71.1,91,29.68,10.0,SSW,5.8,-,N/A,,Mostly Cloudy,210,2013-09-22 11:53:00
8:24 AM,73.4,69.8,88,29.68,10.0,SW,9.2,-,N/A,,Mostly Cloudy,220,2013-09-22 12:24:00
8:44 AM,75.2,69.8,83,29.68,10.0,WSW,11.5,-,N/A,,Scattered Clouds,240,2013-09-22 12:44:00
8:53 AM,75.0,71.1,87,29.69,10.0,West,8.1,-,N/A,,Mostly Cloudy,260,2013-09-22 12:53:00
9:26 AM,75.2,69.8,83,29.69,10.0,West,11.5,-,N/A,,Mostly Cloudy,260,2013-09-22 13:26:00
9:51 AM,73.4,66.2,78,29.70,10.0,West,12.7,-,N/A,,Mostly Cloudy,260,2013-09-22 13:51:00
9:53 AM,73.9,66.9,79,29.70,10.0,West,11.5,-,N/A,,Mostly Cloudy,260,2013-09-22 13:53:00
10:53 AM,71.1,66.9,87,29.71,7.0,West,10.4,-,0.00,Rain,Light Rain,260,2013-09-22 14:53:00
11:10 AM,73.4,66.2,78,29.70,10.0,West,9.2,-,0.00,,Overcast,270,2013-09-22 15:10:00
11:43 AM,71.6,68.0,88,29.71,4.0,WNW,8.1,-,0.00,,Overcast,290,2013-09-22 15:43:00
11:53 AM,72.0,69.1,91,29.70,10.0,WNW,9.2,-,0.00,,Overcast,290,2013-09-22 15:53:00
12:01 PM,71.6,68.0,88,29.71,10.0,WNW,10.4,-,N/A,,Overcast,300,2013-09-22 16:01:00
12:53 PM,73.9,68.0,82,29.71,10.0,WNW,6.9,-,N/A,,Overcast,300,2013-09-22 16:53:00
1:23 PM,73.4,69.8,88,29.71,2.0,NNW,10.4,-,0.00,Rain,Light Rain,330,2013-09-22 17:23:00
1:26 PM,73.4,69.8,88,29.71,2.0,North,9.2,-,0.01,Rain,Rain,360,2013-09-22 17:26:00
1:31 PM,71.6,69.8,94,29.71,1.8,NNW,12.7,18.4,0.01,Rain,Light Rain,340,2013-09-22 17:31:00
1:33 PM,71.6,69.8,94,29.71,2.0,North,12.7,18.4,0.01,Rain,Light Rain,350,2013-09-22 17:33:00
1:45 PM,71.6,69.8,94,29.71,6.0,North,10.4,-,0.02,,Overcast,360,2013-09-22 17:45:00
1:53 PM,72.0,69.1,91,29.72,10.0,North,11.5,-,0.02,,Overcast,350,2013-09-22 17:53:00
2:36 PM,73.4,69.8,88,29.71,10.0,North,11.5,-,N/A,,Overcast,360,2013-09-22 18:36:00
2:53 PM,71.1,68.0,90,29.71,10.0,North,12.7,-,0.00,,Overcast,360,2013-09-22 18:53:00
3:00 PM,71.6,68.0,88,29.72,8.0,North,10.4,-,N/A,,Overcast,360,2013-09-22 19:00:00
3:17 PM,71.6,68.0,88,29.72,4.0,North,11.5,19.6,0.00,Rain,Light Rain,350,2013-09-22 19:17:00
3:53 PM,71.1,66.9,87,29.73,10.0,North,16.1,21.9,0.00,,Overcast,360,2013-09-22 19:53:00
4:53 PM,71.1,66.0,84,29.74,10.0,North,10.4,19.6,N/A,,Overcast,350,2013-09-22 20:53:00
5:27 PM,71.6,66.2,83,29.75,10.0,North,13.8,-,N/A,,Overcast,350,2013-09-22 21:27:00
5:53 PM,72.0,66.0,81,29.75,10.0,North,11.5,-,N/A,,Overcast,350,2013-09-22 21:53:00
6:02 PM,71.6,64.4,78,29.76,10.0,North,11.5,-,N/A,,Overcast,350,2013-09-22 22:02:00
6:13 PM,71.6,64.4,78,29.76,10.0,North,13.8,20.7,N/A,,Overcast,350,2013-09-22 22:13:00
6:22 PM,71.6,64.4,78,29.76,10.0,NNW,11.5,-,N/A,,Overcast,340,2013-09-22 22:22:00
6:53 PM,71.1,64.9,81,29.77,10.0,North,9.2,-,N/A,,Overcast,360,2013-09-22 22:53:00
7:38 PM,69.8,64.4,83,29.79,10.0,North,10.4,-,N/A,,Overcast,10,2013-09-22 23:38:00
7:53 PM,70.0,64.9,84,29.79,10.0,North,6.9,-,N/A,,Overcast,10,2013-09-22 23:53:00
8:53 PM,70.0,64.9,84,29.82,10.0,North,5.8,-,N/A,,Overcast,350,2013-09-23 00:53:00
9:53 PM,69.1,64.9,87,29.84,10.0,NNW,4.6,-,N/A,,Overcast,330,2013-09-23 01:53:00
10:53 PM,69.1,64.0,84,29.86,10.0,NNW,4.6,-,N/A,,Overcast,340,2013-09-23 02:53:00
11:53 PM,68.0,63.0,84,29.86,10.0,NNW,4.6,-,N/A,,Overcast,340,2013-09-23 03:53:00